Regional Weather Roundup
Issued by NWS

Home | Current Version | Previous Version | Text Only | Print | Product List | Glossary Off
Versions: 1 2 3 4 5 6 7 8 9 10 11 12 13 14 15 16 17 18 19 20 21 22 23 24 25 26 27 28 29 30 31 32 33 34 35 36 37 38 39 40 41 42 43 44 45 46 47 48 49 50

000
ASUS43 KOAX 251902
RWRNE

WEATHER ROUNDUP FOR NEBRASKA
NATIONAL WEATHER SERVICE OMAHA NE
200 PM CDT THU MAY 25 2017

NOTES: SATELLITE DATA IS BEING USED TO AUGMENT CLOUD COVER ABOVE
       12000 FEET.
       "FAIR" INDICATES FEW OR NO CLOUDS BELOW 12,000 FEET WITH NO
       SIGNIFICANT WEATHER AND/OR OBSTRUCTIONS TO VISIBILITY.

  * THESE STATIONS DO NOT REPORT WEATHER SUCH AS RAIN...SNOW OR FOG.

NEZ001>004-019>022-054>056-252000-
NEBRASKA PANHANDLE

CITY           SKY/WX    TMP DP  RH WIND       PRES   REMARKS
SCOTTSBLUFF    CLOUDY    71  45  39 W8        29.57F
ALLIANCE       CLOUDY    66  45  46 N8        29.57R
CHADRON        PTSUNNY   67  45  45 SW12      29.56R
SIDNEY         MOSUNNY   67  48  50 NW14      29.61R
$$

NEZ057>060-069>072-079>082-252000-
SOUTHWEST NEBRASKA

CITY           SKY/WX    TMP DP  RH WIND       PRES   REMARKS
NORTH PLATTE   SUNNY     72  52  49 MISG      29.52F
IMPERIAL       MOSUNNY   77  52  41 NE10      29.51F
LEXINGTON      SUNNY     70  52  52 CALM      29.53R
MCCOOK         MOSUNNY   78  53  41 E7        29.49F
$$

NEZ005>010-023>029-035>040-094-252000-
NORTH CENTRAL NEBRASKA

CITY           SKY/WX    TMP DP  RH WIND       PRES   REMARKS
VALENTINE      MOSUNNY   70  48  45 N12       29.54R
BROKEN BOW     SUNNY     67  51  56 W7        29.55R
ORD            CLOUDY    66  47  50 S8        29.51F
$$

NEZ041-046>049-061>064-073>077-083>087-252000-
SOUTH CENTRAL NEBRASKA

CITY           SKY/WX    TMP DP  RH WIND       PRES   REMARKS
GRAND ISLAND   MOSUNNY   71  52  50 S15G23    29.53F
HASTINGS       SUNNY     70  50  49 S15G24    29.53S
KEARNEY *      PTSUNNY   72  50  46 S14       29.52F
$$

NEZ011>018-030>034-042>045-252000-
NORTHEAST NEBRASKA

CITY           SKY/WX    TMP DP  RH WIND       PRES   REMARKS
NORFOLK        CLOUDY    69  46  43 S20       29.51F
ALBION         LGT RAIN  67  48  51 SW13G18   29.52R
BLAIR          SUNNY     72  49  44 SE20G29   29.56F
TEKAMAH        MOSUNNY   73  53  49 S18       29.57S
$$

NEZ050>053-065>068-078-088>093-252000-
SOUTHEAST NEBRASKA

CITY           SKY/WX    TMP DP  RH WIND       PRES   REMARKS
LINCOLN        SUNNY     75  50  41 S21G32    29.55F
OMAHA EPPLEY   MOSUNNY   75  50  41 SE26      29.57F
FALLS CITY     SUNNY     73  52  47 SE13G22   29.60F
$$

NEZ044-045-051>053-067-252000-
OMAHA AREA

CITY           SKY/WX    TMP DP  RH WIND       PRES   REMARKS
OMAHA EPPLEY   MOSUNNY   75  50  41 SE26      29.57F
BLAIR          SUNNY     72  49  44 SE20G29   29.56F
OFFUTT AFB     SUNNY     73  49  43 SE21      29.58F
WAHOO          FAIR      72  46  40 S22G32    29.54F
$$



USA.gov is the U.S. government's official web portal to all federal, state and local government web resources and services.